Location: Wells
(51.2093°N, 2.6446°W)
Time: 13:29:49
(UTC+01:00)

CUBEBUG 2 - Pass Details

Date: 13 March 2026
Orbit: 548 x 627 km, 97.9° (Epoch: 14 April)

Event Time Altitude Azimuth Distance (km) Brightness Sun altitude
Rises 01:41:26 0° 24° (NNE) 2,884 ? -38.8°
Reaches altitude 10° 01:43:58 10° 38° (NE) 1,986 ? -38.7°
Enters shadow 01:44:22 12° 42° (NE) 1,861 ? -38.6°
